Volver al catálogo

COSMOS 2251 DEB

ActivoLEO
NORAD 34964·DEBRIS·🇷🇺 Russia

Lanzado Jun 16, 1993 desde Plesetsk Cosmodrome

Loading…

Próximos Pases (próximas 24 horas)

TLE

ObsoletoSource: Space-Track

Época: Aug 22, 2026, 20:07 UTC

1 34964U 93036AET 26234.83841504  .00001486  00000-0  82373-3 0  9992
2 34964  73.9683 266.9057 0207762  70.1551 292.1845 14.01696344880232

Sigue COSMOS 2251 DEB en tiempo real con AllMySat

Download on the App Store